This demonstration page uses our WeatherBlox Daily Observations layout. Learn more.

39.92423, -83.80882

Hourly Observations for September 16, 2016

Temp ( °F °C ) Dew Point ( °F °C ) Humidity (%) Winds ( mph kmh ) Pressure ( in mb ) Visibility ( mi km ) Precip ( " mm )
12:56 am 00:56 Clear 57 13.9 54 12.2 90 90 E 5 7 30.14 1021 10 16.0934 0 0
1:56 am 01:56 Clear 58 14.4 54 12.2 87 87 ENE 5 7 30.14 1021 10 16.0934 0 0
2:56 am 02:56 Clear 57 13.9 54 12.2 90 90 ENE 7 11 30.13 1020 10 16.0934 0 0
3:56 am 03:56 Clear 56 13.3 53 11.7 90 90 E 5 7 30.12 1020 10 16.0934 0 0
4:56 am 04:56 Clear 56 13.3 54 12.2 93 93 E 5 7 30.11 1020 10 16.0934 0 0
5:56 am 05:56 Clear 56 13.3 54 12.2 93 93 E 6 9 30.11 1020 10 16.0934 0 0
6:56 am 06:56 Clear 57 13.9 54 12.2 90 90 E 5 7 30.13 1020 10 16.0934 0 0
7:56 am 07:56 Sunny 58 14.4 55 12.8 90 90 E 5 7 30.14 1021 10 16.0934 0 0
8:56 am 08:56 Sunny 63 17.2 59 15 87 87 ESE 5 7 30.15 1021 10 16.0934 0 0
9:56 am 09:56 Sunny 70 21.1 63 17.2 79 79 S 5 7 30.15 1021 10 16.0934 0 0
10:56 am 10:56 Sunny 75 23.9 66 18.9 74 74 SSW 3 6 30.13 1020 10 16.0934 0 0
11:56 am 11:56 Sunny 78 25.6 66 18.9 67 67 SSW 7 11 30.12 1020 10 16.0934 0 0
12:56 pm 12:56 Sunny 79 26.1 65 18.3 62 62 SSE 6 9 30.09 1019 10 16.0934 0 0
1:56 pm 13:56 Sunny 83 28.3 65 18.3 55 55 Calm 30.07 1018 10 16.0934 0 0
2:56 pm 14:56 Sunny 84 28.9 67 19.4 57 57 SW 6 9 30.05 1018 10 16.0934 0 0
3:56 pm 15:56 Sunny 85 29.4 67 19.4 55 55 WSW 8 13 30.04 1017 10 16.0934 0 0
4:56 pm 16:56 Sunny 85 29.4 68 20 57 57 SW 8 13 30.03 1017 10 16.0934 0 0
5:56 pm 17:56 Sunny 81 27.2 68 20 65 65 SSW 6 9 30.02 1017 10 16.0934 0 0
6:56 pm 18:56 Sunny 78 25.6 69 20.6 74 74 SSE 5 7 30.01 1016 10 16.0934 0 0
7:56 pm 19:56 Partly Cloudy with Rain 76 24.4 69 20.6 79 79 SSW 3 6 30.01 1016 10 16.0934 0 0.0254
8:56 pm 20:56 Mostly Clear 71 21.7 69 20.6 94 94 SSW 3 6 30.02 1017 10 16.0934 0.02 0.508
9:56 pm 21:56 Mostly Clear 71 21.7 68 20 90 90 S 3 6 30.02 1017 10 16.0934 0 0
10:56 pm 22:56 Mostly Clear 71 21.7 68 20 90 90 S 5 7 30.02 1017 10 16.0934 0 0
11:56 pm 23:56 Clear 70 21.1 68 20 93 93 Calm 30.02 1017 10 16.0934 0 0

Powered by AerisWeather